NUA0506 DNMM-DNAS

Flight info

Callsign NUA0506
Flight time 0h 41m
Altitude 27000
Route LAG UJ333 UMUNA DCT EDBUR DCT RAMUL DCT SAB
Aircraft A321/M-SDE3FGHIRWY/LB1

Departure

Time 2026-05-09 14:10
Airport Murtala Muhammed International Airport (DNMM)

Arrival

Time 2026-05-09 14:52
Airport Asaba International Airport (DNAS)
Time Latitude Longitude Altitude Speed Heading
2026-05-09 13:55 6.58451 3.33208 120 ft 0 kts 72°
2026-05-09 14:02 6.58449 3.33201 116 ft 2 kts 71°
2026-05-09 14:02 6.58442 3.33183 116 ft 2 kts 70°
2026-05-09 14:02 6.58436 3.33166 117 ft 3 kts 57°
2026-05-09 14:02 6.58424 3.33152 117 ft 3 kts 25°
2026-05-09 14:03 6.58406 3.33148 117 ft 3 kts 355°
2026-05-09 14:03 6.58386 3.33151 117 ft 3 kts 348°
2026-05-09 14:03 6.58370 3.33153 117 ft 1 kts 358°
2026-05-09 14:03 6.58365 3.33153 116 ft 0 kts 358°
2026-05-09 14:06 6.58383 3.33153 117 ft 7 kts 358°
2026-05-09 14:06 6.58489 3.33151 121 ft 18 kts 359°
2026-05-09 14:07 6.58565 3.33110 121 ft 11 kts 271°
2026-05-09 14:07 6.58610 3.33050 123 ft 19 kts 345°
2026-05-09 14:07 6.58783 3.33043 126 ft 26 kts 359°
2026-05-09 14:07 6.58950 3.33042 131 ft 22 kts
2026-05-09 14:08 6.59098 3.33042 133 ft 20 kts 359°
2026-05-09 14:08 6.59227 3.33040 136 ft 17 kts 359°
2026-05-09 14:08 6.59336 3.33039 138 ft 14 kts
2026-05-09 14:08 6.59453 3.33038 140 ft 24 kts 360°
2026-05-09 14:09 6.59609 3.33037 143 ft 17 kts 359°
2026-05-09 14:09 6.59661 3.32967 144 ft 13 kts 271°
2026-05-09 14:09 6.59649 3.32898 145 ft 8 kts 216°
2026-05-09 14:09 6.59591 3.32893 143 ft 12 kts 180°
2026-05-09 14:10 6.58632 3.32905 124 ft 128 kts 179°
2026-05-09 14:10 6.57603 3.32916 278 ft 156 kts 179°
2026-05-09 14:10 6.56582 3.32923 1105 ft 143 kts 180°
2026-05-09 14:11 6.55600 3.32971 1705 ft 143 kts 168°
2026-05-09 14:11 6.54760 3.33548 1958 ft 161 kts 122°
2026-05-09 14:11 6.54474 3.34706 2150 ft 184 kts 99°
2026-05-09 14:11 6.54339 3.36067 2309 ft 206 kts 97°
2026-05-09 14:12 6.54199 3.37575 2466 ft 227 kts 97°
2026-05-09 14:12 6.54044 3.39226 2607 ft 252 kts 97°
2026-05-09 14:12 6.53870 3.41048 3053 ft 267 kts 97°
2026-05-09 14:12 6.53690 3.42919 3760 ft 270 kts 96°
2026-05-09 14:13 6.53505 3.44810 4504 ft 272 kts 96°
2026-05-09 14:14 6.52180 3.58057 9468 ft 272 kts 94°
2026-05-09 14:15 6.51984 3.59958 10094 ft 273 kts 94°
2026-05-09 14:15 6.51786 3.61919 10271 ft 291 kts 94°
2026-05-09 14:15 6.51577 3.64008 10389 ft 309 kts 94°
2026-05-09 14:15 6.51358 3.66205 10506 ft 325 kts 94°
2026-05-09 14:16 6.51123 3.68520 10649 ft 338 kts 94°
2026-05-09 14:16 6.50876 3.70903 11000 ft 344 kts 94°
2026-05-09 14:16 6.50624 3.73302 11444 ft 347 kts 95°
2026-05-09 14:16 6.50370 3.75733 11899 ft 350 kts 95°
2026-05-09 14:17 6.50119 3.78159 12342 ft 353 kts 95°
2026-05-09 14:17 6.49868 3.80626 12794 ft 356 kts 95°
2026-05-09 14:17 6.49619 3.83112 13252 ft 359 kts 95°
2026-05-09 14:17 6.49368 3.85627 13688 ft 362 kts 95°
2026-05-09 14:18 6.49114 3.88158 14063 ft 365 kts 95°
2026-05-09 14:18 6.48855 3.90709 14438 ft 367 kts 95°
2026-05-09 14:18 6.48591 3.93277 14807 ft 370 kts 95°
2026-05-09 14:18 6.48329 3.95826 15159 ft 372 kts 95°
2026-05-09 14:19 6.48059 3.98431 15519 ft 375 kts 95°
2026-05-09 14:19 6.47789 4.01053 15873 ft 377 kts 95°
2026-05-09 14:19 6.47517 4.03691 16215 ft 380 kts 95°
2026-05-09 14:19 6.47243 4.06344 16549 ft 382 kts 95°
2026-05-09 14:20 6.46967 4.09017 16871 ft 385 kts 95°
2026-05-09 14:20 6.46697 4.11667 17176 ft 387 kts 95°
2026-05-09 14:20 6.46423 4.14366 17483 ft 389 kts 95°
2026-05-09 14:21 6.45863 4.19809 18039 ft 393 kts 95°
2026-05-09 14:21 6.45577 4.22555 18299 ft 395 kts 95°
2026-05-09 14:21 6.45294 4.25299 18544 ft 396 kts 95°
2026-05-09 14:21 6.45009 4.28070 18786 ft 398 kts 95°
2026-05-09 14:22 6.44820 4.29901 18951 ft 398 kts 95°
2026-05-09 14:22 6.44436 4.33586 19270 ft 400 kts 95°
2026-05-09 14:22 6.44145 4.36365 19514 ft 401 kts 95°
2026-05-09 14:22 6.43855 4.39161 19763 ft 402 kts 95°
2026-05-09 14:23 6.43567 4.41958 20004 ft 404 kts 95°
2026-05-09 14:23 6.43371 4.43862 20172 ft 405 kts 95°
2026-05-09 14:23 6.43079 4.46682 20422 ft 406 kts 95°
2026-05-09 14:23 6.42789 4.49474 20675 ft 407 kts 95°
2026-05-09 14:24 6.42497 4.52308 20934 ft 408 kts 95°
2026-05-09 14:24 6.42205 4.55154 21188 ft 410 kts 95°
2026-05-09 14:24 6.41912 4.58017 21447 ft 411 kts 95°
2026-05-09 14:24 6.41616 4.60887 21705 ft 413 kts 95°
2026-05-09 14:25 6.41317 4.63766 21964 ft 414 kts 95°
2026-05-09 14:25 6.41016 4.66650 22222 ft 416 kts 95°
2026-05-09 14:25 6.40716 4.69518 22488 ft 417 kts 95°
2026-05-09 14:25 6.40411 4.72429 22746 ft 419 kts 95°
2026-05-09 14:26 6.40107 4.75334 22993 ft 420 kts 95°
2026-05-09 14:26 6.39800 4.78267 23241 ft 422 kts 95°
2026-05-09 14:26 6.39494 4.81212 23478 ft 423 kts 95°
2026-05-09 14:26 6.39189 4.84161 23680 ft 424 kts 95°
2026-05-09 14:27 6.38885 4.87123 23884 ft 425 kts 95°
2026-05-09 14:27 6.38584 4.90047 24087 ft 426 kts 95°
2026-05-09 14:27 6.38276 4.93012 24294 ft 427 kts 95°
2026-05-09 14:27 6.37968 4.96001 24503 ft 428 kts 95°
2026-05-09 14:28 6.37683 4.98991 24720 ft 429 kts 94°
2026-05-09 14:28 6.37419 5.01983 24847 ft 430 kts 94°
2026-05-09 14:28 6.37169 5.04973 24893 ft 428 kts 94°
2026-05-09 14:28 6.36931 5.07933 24891 ft 428 kts 94°
2026-05-09 14:29 6.36693 5.10913 24892 ft 428 kts 94°
2026-05-09 14:29 6.36456 5.13892 24891 ft 428 kts 94°
2026-05-09 14:29 6.36212 5.16881 24890 ft 428 kts 94°
2026-05-09 14:29 6.35964 5.19869 24891 ft 428 kts 94°
2026-05-09 14:30 6.35713 5.22855 24724 ft 426 kts 94°
2026-05-09 14:30 6.35467 5.25770 24467 ft 422 kts 94°
2026-05-09 14:30 6.35222 5.28687 23932 ft 417 kts 94°
2026-05-09 14:30 6.34980 5.31583 23343 ft 413 kts 94°
2026-05-09 14:31 6.34741 5.34448 22735 ft 408 kts 94°
2026-05-09 14:31 6.34504 5.37279 22208 ft 401 kts 94°
2026-05-09 14:31 6.34268 5.40050 21697 ft 395 kts 94°
2026-05-09 14:31 6.34024 5.42785 21196 ft 403 kts 95°
2026-05-09 14:32 6.33712 5.45588 20794 ft 403 kts 96°
2026-05-09 14:32 6.33342 5.48388 20557 ft 403 kts 97°
2026-05-09 14:32 6.32942 5.51192 20321 ft 403 kts 97°
2026-05-09 14:32 6.32539 5.53969 20086 ft 402 kts 97°
2026-05-09 14:33 6.32140 5.56747 19844 ft 401 kts 97°
2026-05-09 14:33 6.31754 5.59488 19627 ft 400 kts 97°
2026-05-09 14:33 6.31368 5.62255 19398 ft 398 kts 97°
2026-05-09 14:33 6.30987 5.65016 19173 ft 397 kts 97°
2026-05-09 14:34 6.30614 5.67755 18947 ft 396 kts 97°
2026-05-09 14:34 6.30242 5.70510 18721 ft 395 kts 97°
2026-05-09 14:34 6.29875 5.73247 18498 ft 394 kts 97°
2026-05-09 14:34 6.29509 5.75969 18279 ft 393 kts 97°
2026-05-09 14:35 6.29141 5.78698 18040 ft 392 kts 97°
2026-05-09 14:35 6.28778 5.81373 17787 ft 390 kts 97°
2026-05-09 14:35 6.28409 5.84072 17532 ft 388 kts 97°
2026-05-09 14:35 6.28039 5.86763 17276 ft 386 kts 97°
2026-05-09 14:36 6.27669 5.89439 17035 ft 385 kts 97°
2026-05-09 14:36 6.27308 5.92074 16781 ft 383 kts 97°
2026-05-09 14:36 6.26951 5.94716 16539 ft 381 kts 97°
2026-05-09 14:36 6.26595 5.97353 16298 ft 380 kts 97°
2026-05-09 14:37 6.26240 5.99983 16053 ft 378 kts 97°
2026-05-09 14:37 6.25882 6.02599 15813 ft 376 kts 97°
2026-05-09 14:37 6.25524 6.05201 15577 ft 374 kts 97°
2026-05-09 14:37 6.25166 6.07790 15340 ft 373 kts 97°
2026-05-09 14:38 6.24816 6.10331 15109 ft 371 kts 97°
2026-05-09 14:38 6.24461 6.12902 14878 ft 370 kts 97°
2026-05-09 14:38 6.24105 6.15460 14645 ft 367 kts 97°
2026-05-09 14:38 6.23757 6.17977 14267 ft 359 kts 97°
2026-05-09 14:39 6.23418 6.20451 13818 ft 354 kts 96°
2026-05-09 14:39 6.23085 6.22887 13310 ft 350 kts 96°
2026-05-09 14:39 6.22759 6.25270 12847 ft 345 kts 96°
2026-05-09 14:39 6.22434 6.27639 12380 ft 340 kts 96°
2026-05-09 14:40 6.22114 6.29982 11921 ft 336 kts 96°
2026-05-09 14:40 6.21795 6.32293 11459 ft 332 kts 96°
2026-05-09 14:40 6.21479 6.34581 11002 ft 328 kts 96°
2026-05-09 14:40 6.21168 6.36838 10671 ft 320 kts 96°
2026-05-09 14:41 6.20870 6.39004 10539 ft 306 kts 96°
2026-05-09 14:41 6.20584 6.41081 10430 ft 292 kts 95°
2026-05-09 14:41 6.20313 6.43052 10220 ft 283 kts 95°
2026-05-09 14:41 6.20046 6.44997 9971 ft 278 kts 95°
2026-05-09 14:42 6.19782 6.46912 9784 ft 275 kts 95°
2026-05-09 14:42 6.19520 6.48825 9659 ft 276 kts 95°
2026-05-09 14:42 6.19258 6.50738 9529 ft 276 kts 95°
2026-05-09 14:42 6.18994 6.52623 9310 ft 277 kts 97°
2026-05-09 14:43 6.18420 6.54475 9034 ft 278 kts 108°
2026-05-09 14:43 6.17690 6.56274 8761 ft 279 kts 109°
2026-05-09 14:43 6.16949 6.58079 8487 ft 279 kts 110°
2026-05-09 14:43 6.16214 6.59883 8111 ft 280 kts 109°
2026-05-09 14:44 6.15473 6.61721 7504 ft 286 kts 110°
2026-05-09 14:44 6.14744 6.63582 6931 ft 291 kts 110°
2026-05-09 14:44 6.14017 6.65494 6345 ft 295 kts 110°
2026-05-09 14:44 6.13288 6.67438 5740 ft 299 kts 110°
2026-05-09 14:45 6.12561 6.69404 5134 ft 302 kts 110°
2026-05-09 14:45 6.11842 6.71402 4526 ft 305 kts 110°
2026-05-09 14:45 6.11131 6.73426 3918 ft 307 kts 110°
2026-05-09 14:45 6.10451 6.75413 3408 ft 292 kts 110°
2026-05-09 14:46 6.09821 6.77313 2941 ft 284 kts 110°
2026-05-09 14:46 6.09223 6.79137 2759 ft 263 kts 110°
2026-05-09 14:46 6.08745 6.80811 2620 ft 246 kts 98°
2026-05-09 14:46 6.08977 6.82477 2442 ft 237 kts 66°
2026-05-09 14:47 6.09999 6.83694 2266 ft 227 kts 31°
2026-05-09 14:47 6.11477 6.84129 2108 ft 222 kts 356°
2026-05-09 14:47 6.12916 6.83736 2007 ft 218 kts 334°
2026-05-09 14:47 6.14273 6.83053 1968 ft 218 kts 329°
2026-05-09 14:48 6.15342 6.82052 1976 ft 204 kts 293°
2026-05-09 14:48 6.15779 6.80747 1984 ft 193 kts 284°
2026-05-09 14:48 6.16169 6.79484 1973 ft 188 kts 285°
2026-05-09 14:48 6.16571 6.78234 1941 ft 188 kts 286°
2026-05-09 14:49 6.16968 6.77017 1858 ft 175 kts 286°
2026-05-09 14:49 6.17338 6.75893 1830 ft 164 kts 286°
2026-05-09 14:49 6.17685 6.74834 1618 ft 156 kts 285°
2026-05-09 14:49 6.18017 6.73819 1390 ft 150 kts 285°
2026-05-09 14:50 6.18342 6.72826 1190 ft 149 kts 285°
2026-05-09 14:50 6.18662 6.71849 984 ft 149 kts 286°
2026-05-09 14:50 6.18983 6.70873 787 ft 148 kts 285°
2026-05-09 14:50 6.19308 6.69889 597 ft 149 kts 284°
2026-05-09 14:51 6.19638 6.68904 407 ft 148 kts 286°
2026-05-09 14:51 6.19963 6.67923 311 ft 147 kts 285°
2026-05-09 14:51 6.20236 6.67083 310 ft 95 kts 289°
2026-05-09 14:51 6.20383 6.66631 308 ft 53 kts 289°
2026-05-09 14:52 6.20496 6.66302 310 ft 48 kts 288°
2026-05-09 14:52 6.20577 6.66109 311 ft 18 kts 336°
2026-05-09 14:52 6.20656 6.66123 312 ft 8 kts 16°
2026-05-09 14:52 6.20694 6.66130 312 ft 8 kts 357°
2026-05-09 14:53 6.20741 6.66057 309 ft 13 kts 290°
2026-05-09 14:53 6.20752 6.66027 309 ft 0 kts 289°